Terminal Aerodrome Forecast
Issued by NWS Shreveport, LA

Home | Current Version | Previous Version | Text Only | Print | Product List | Glossary On
Versions: 1 2 3 4 5 6 7 8 9 10 11 12 13 14 15
000
FTUS44 KSHV 052320
TAFTYR
TAF
KTYR 052320Z 0600/0624 20010KT P6SM FEW060
     FM060100 16007KT P6SM SCT250
      TEMPO 0610/0614 5SM BR BKN015
     FM061400 20014G21KT P6SM BKN015
     FM061600 20014G21KT P6SM SCT050=

USA.gov is the U.S. government's official web portal to all federal, state and local government web resources and services.